Wind_Speed
52 53 54 55 56 56 55 53 51 50 50 50 51 52 53 53 54 54 53 51 50 50 50 50 50 49 49 49 50 49 48 47 46 45 45 45 45 45 46 46 46 47 47 48 48 49 49 50 51 51 52 52 51 51 51 50 50 50 49 49 48 48 47 49 51 53 54 55 55 57 58 60 61 62 64 65 65 66 68 69 69 70 71 72 73
49 51 50 50 51 50 49 48 47 47 47 49 50 51 52 53 53 53 52 51 50 50 50 50 49 48 48 48 47 46 45 44 44 44 44 45 45 45 45 45 46 47 47 48 48 49 49 50 51 51 52 51 51 51 50 49 49 49 49 49 48 47 48 51 52 54 54 55 57 58 60 61 62 64 65 66 67 67 68 69 70 70 71 72 73
45 45 45 45 46 45 45 44 44 44 45 47 48 49 50 51 51 51 50 50 49 49 48 48 47 47 46 45 43 42 42 43 43 44 44 44 44 44 45 45 46 47 47 48 48 49 49 50 51 51 51 52 51 50 49 49 49 49 49 49 48 48 50 52 53 54 55 57 59 60 61 62 64 65 66 68 68 68 69 69 70 71 72 73 74
41 41 42 43 43 42 42 41 41 42 43 43 44 45 46 47 48 48 47 47 46 46 46 46 45 43 42 41 40 41 42 43 44 44 43 43 43 44 44 45 46 47 47 48 48 48 49 49 50 51 51 51 50 49 49 50 50 50 49 48 48 50 52 53 54 55 57 59 60 62 63 64 65 66 67 68 69 70 70 71 70 71 72 73 75
40 40 40 41 40 40 39 39 39 40 40 40 41 42 43 44 44 44 44 44 44 44 43 42 41 40 39 39 40 41 42 42 42 42 42 42 43 44 44 45 45 46 47 47 47 48 48 49 50 51 51 50 48 48 50 51 51 51 50 49 50 52 53 54 56 57 59 61 62 64 65 66 66 66 67 68 69 71 72 72 72 72 72 73 75
40 39 39 39 38 38 37 37 37 38 38 39 40 41 42 42 42 42 42 42 42 41 40 39 38 38 38 39 39 40 40 40 41 41 42 43 43 44 44 44 45 45 46 46 46 46 47 48 49 50 49 48 48 50 52 52 52 53 54 53 53 54 55 56 58 59 61 62 63 65 66 66 67 67 68 69 69 70 71 72 73 73 73 74 75
38 37 37 37 36 35 34 34 35 35 36 37 38 39 40 41 41 41 41 40 40 39 38 37 38 38 38 38 39 39 40 40 41 42 42 43 43 43 43 43 44 44 45 45 45 44 45 47 48 48 48 49 50 52 53 53 54 55 57 57 56 56 56 58 60 61 62 63 64 65 66 67 67 67 68 69 70 70 71 71 72 73 74 75 76
37 36 35 34 33 32 31 32 32 33 35 36 38 38 39 39 39 39 39 39 38 37 37 38 38 38 38 38 39 40 40 41 41 41 41 41 41 42 41 41 42 43 43 42 42 44 46 47 47 47 50 51 52 53 53 53 54 55 56 57 56 57 58 59 61 61 62 63 64 65 66 66 66 67 68 69 70 70 71 72 73 74 75 76 78
35 34 33 32 30 29 29 30 31 32 34 36 37 37 38 38 37 37 37 36 37 37 38 39 39 39 39 39 39 40 40 40 40 39 39 39 40 39 39 40 41 42 42 42 43 45 46 46 47 50 52 54 55 54 53 53 53 53 54 55 56 58 59 60 61 62 62 63 63 63 64 65 66 67 68 69 69 70 71 72 73 74 75 77 78
32 32 31 29 28 28 28 30 31 32 34 35 37 37 37 37 36 36 36 37 39 39 39 39 39 39 39 39 38 38 38 37 37 37 38 39 39 39 40 41 43 44 44 44 45 45 46 47 51 53 54 55 55 54 53 53 53 52 53 55 57 58 59 60 61 61 60 60 61 63 64 65 66 67 68 69 70 70 71 72 73 74 76 77 78
32 31 30 28 27 27 28 30 31 33 35 36 37 37 35 35 36 37 37 38 38 38 38 38 39 39 39 38 37 36 36 35 35 37 39 40 40 41 42 44 46 46 47 47 46 46 47 50 52 54 54 54 54 53 53 53 53 53 54 56 57 58 59 59 59 58 58 60 62 64 65 66 66 67 68 69 69 70 70 71 72 73 76 78 79
33 31 29 27 26 27 29 30 32 34 35 36 36 35 35 35 36 37 37 36 36 37 37 38 38 38 37 36 36 35 34 34 35 37 39 41 42 44 45 46 47 48 48 47 46 46 47 50 52 53 53 53 53 53 52 52 53 54 55 57 58 58 58 57 55 55 59 62 64 65 66 67 67 68 69 69 69 68 68 69 70 72 74 77 79
34 31 29 27 27 28 30 31 33 35 36 37 37 36 36 36 36 37 37 37 36 36 35 36 36 36 36 36 35 35 33 33 35 37 39 42 43 44 45 46 47 47 47 46 46 45 47 50 52 53 53 53 54 53 53 53 54 55 56 57 57 58 57 53 52 57 62 64 65 66 67 68 68 69 69 69 68 67 66 67 69 71 73 75 78
35 33 30 29 29 30 31 33 35 37 38 39 38 37 36 36 36 37 36 35 34 33 33 34 34 35 35 36 36 34 33 33 35 37 40 43 44 44 45 46 47 46 45 45 45 46 49 51 52 52 53 53 53 53 54 55 55 56 57 57 57 58 55 51 53 60 64 65 66 67 68 69 69 69 69 68 66 65 65 66 68 70 72 74 77
37 35 32 31 32 33 34 35 37 38 39 39 38 37 36 36 36 35 34 33 32 31 32 33 34 35 35 36 36 34 33 34 36 38 42 45 45 45 45 47 47 46 44 45 46 48 50 52 51 51 51 51 51 52 54 55 56 57 57 57 57 57 53 51 56 62 65 66 67 68 69 69 69 69 69 66 64 63 64 66 68 70 72 74 77
38 36 34 34 35 36 36 36 37 38 39 39 38 37 36 35 35 35 35 33 30 30 33 35 36 36 35 35 35 34 34 36 37 41 46 47 46 46 47 49 48 46 45 46 48 49 51 51 50 50 50 49 51 52 54 55 56 56 56 56 56 55 53 54 59 63 65 66 68 69 70 70 69 69 67 65 63 62 64 66 68 70 72 74 77
39 37 36 37 38 38 37 36 36 38 38 39 39 38 36 36 37 37 36 32 30 32 36 37 37 34 33 34 33 33 35 37 40 45 48 47 46 48 51 51 49 47 47 49 50 51 52 51 50 49 49 50 52 54 55 55 55 54 54 54 54 54 54 57 61 64 65 67 69 70 70 70 69 68 65 63 62 62 64 66 68 69 72 75 77
40 39 39 39 39 38 37 36 37 38 38 39 38 38 37 38 38 38 35 31 30 32 34 36 36 35 33 33 33 33 35 38 43 48 49 47 48 52 54 53 51 50 51 52 53 52 52 52 51 50 50 52 55 56 57 57 56 54 53 54 55 56 57 60 63 65 66 68 69 70 70 70 69 67 64 62 61 62 64 66 67 69 72 75 77
42 41 40 39 38 38 38 38 38 39 39 39 38 38 38 39 38 37 34 31 30 30 31 35 40 40 37 35 35 35 37 41 46 49 49 49 52 54 54 53 52 53 53 54 54 53 53 53 52 52 53 55 57 58 59 58 58 55 54 56 58 58 60 62 64 66 68 69 70 70 69 69 68 65 63 61 61 62 64 66 68 70 72 75 77
42 41 40 39 39 39 39 40 40 40 39 38 38 38 39 39 38 37 34 31 31 32 31 35 42 44 42 40 40 39 39 42 46 48 48 51 54 56 54 53 53 53 54 54 54 53 53 54 53 53 55 56 58 59 59 59 59 57 56 58 61 61 63 64 65 67 69 70 70 70 68 67 67 65 62 60 61 62 64 66 68 70 73 75 76
41 40 39 40 41 41 41 42 42 41 40 38 38 40 40 39 38 38 35 32 32 33 32 34 38 41 41 41 43 43 43 43 45 47 49 51 54 56 56 55 54 55 55 55 55 53 53 54 53 53 55 57 58 59 59 59 60 59 59 60 63 65 65 66 66 68 70 70 70 69 67 67 67 65 62 60 61 62 64 66 68 71 73 76 76
41 40 39 40 41 42 42 42 42 42 40 39 39 41 41 39 37 36 34 32 32 34 34 34 35 37 38 40 43 46 45 43 43 45 49 51 54 57 57 56 56 56 57 56 54 52 52 51 51 51 53 55 57 58 58 59 61 61 61 62 65 67 68 67 68 69 70 70 69 67 67 68 68 65 62 60 61 62 64 66 68 71 74 75 75
41 39 39 40 41 41 40 40 40 41 41 40 41 42 42 39 37 35 34 33 33 34 34 34 35 35 36 39 44 47 47 46 45 48 51 53 54 55 56 57 57 57 56 55 52 50 49 48 48 49 51 53 55 56 58 59 60 62 63 64 66 68 69 69 69 70 71 70 68 67 68 69 68 65 61 60 61 62 64 66 68 71 74 75 74
44 44 44 45 45 45 45 43 42 41 41 41 41 42 41 38 36 36 36 35 34 34 34 36 37 37 37 41 45 49 49 49 49 51 51 50 50 53 56 58 58 56 55 53 50 48 47 47 47 48 50 52 53 55 56 58 60 62 63 64 67 69 69 69 69 70 71 70 68 68 69 70 68 64 61 60 61 63 65 66 68 71 74 74 73
49 51 49 49 51 52 52 50 47 44 43 42 41 40 38 37 36 35 35 35 36 37 39 39 38 36 36 39 43 47 50 50 50 50 50 48 50 54 57 58 57 56 53 51 48 47 47 47 48 50 51 52 53 54 55 57 58 60 61 63 66 69 69 69 69 69 70 69 69 70 70 70 68 63 60 60 61 63 65 66 68 71 73 73 72
53 54 52 50 52 54 54 53 49 46 44 43 42 40 36 34 34 32 33 36 41 43 42 41 38 36 36 39 45 50 52 51 50 50 49 48 50 53 55 56 56 55 53 51 50 50 50 51 52 54 54 54 55 56 56 56 58 59 60 63 65 67 68 68 68 68 69 70 71 71 71 69 66 62 60 61 62 63 65 66 69 72 73 72 70
55 56 54 53 53 55 55 55 53 49 46 46 47 45 39 33 32 34 36 40 45 47 46 44 43 41 39 42 49 52 51 50 51 51 50 50 50 52 55 56 56 55 54 53 52 54 55 55 56 58 58 58 59 59 59 58 59 60 62 64 65 66 67 68 67 68 69 71 71 71 70 68 64 61 60 61 62 63 65 67 69 71 72 71 70
55 55 56 55 54 53 54 56 55 52 50 50 49 48 46 40 36 37 39 41 45 48 47 45 44 42 39 40 44 48 49 50 52 52 51 51 53 54 56 56 56 56 56 55 56 57 58 59 60 62 62 63 63 63 62 62 62 63 65 66 67 68 68 68 68 69 71 72 72 71 69 65 61 60 60 61 62 63 65 67 70 71 71 70 70
55 56 58 58 55 52 52 55 56 54 53 52 49 49 50 48 42 37 34 36 42 47 47 46 45 44 41 40 43 48 50 52 53 52 52 54 56 56 57 57 57 58 58 57 59 61 61 62 63 65 66 66 67 66 66 65 65 67 69 70 70 69 68 68 69 71 72 72 71 70 67 62 59 59 60 61 63 64 65 68 70 70 69 69 69
57 59 61 60 56 52 50 51 53 55 56 54 51 50 52 53 51 46 41 41 45 48 48 48 48 47 47 47 48 50 51 51 52 54 55 56 58 58 58 59 59 59 60 61 62 64 64 65 66 67 68 69 70 69 69 69 70 72 73 73 73 70 69 69 71 72 72 71 70 68 63 59 58 58 60 61 62 63 65 67 69 69 68 68 69
59 61 61 60 56 52 49 48 51 56 58 57 56 54 52 53 56 56 53 51 51 50 49 49 49 49 50 51 51 51 51 52 54 56 57 58 60 61 61 60 61 62 63 64 65 66 67 67 68 69 71 71 71 72 73 74 75 76 76 76 74 71 69 70 72 72 71 71 69 65 60 57 56 58 59 61 62 63 65 67 68 68 67 67 68
59 60 60 58 55 52 49 47 49 53 56 58 59 57 54 54 57 57 55 53 51 51 52 52 51 52 53 53 53 53 54 55 57 58 60 61 63 64 63 62 63 65 66 66 67 68 68 69 70 71 73 74 74 75 77 78 79 79 79 77 74 71 70 71 71 71 70 69 66 60 57 56 56 58 59 61 62 64 65 67 67 66 65 66 66
55 55 56 56 55 54 52 51 50 51 52 53 55 56 56 58 59 58 56 54 53 54 56 56 55 56 57 57 57 58 58 58 59 60 62 63 64 65 65 65 67 69 69 68 68 69 69 70 71 74 76 77 79 80 82 82 83 82 80 77 74 72 71 71 71 70 69 66 61 57 55 55 57 58 59 61 62 64 65 66 66 65 65 65 66
51 51 52 52 50 50 51 53 54 53 50 49 49 53 56 59 59 57 56 57 57 58 58 57 56 56 57 58 59 59 59 59 60 62 64 65 66 66 67 68 69 70 70 69 70 70 70 71 74 77 79 81 83 85 86 86 86 83 80 77 75 73 72 71 70 68 65 61 57 55 54 55 57 58 59 60 62 64 65 65 65 64 64 64 65
52 51 50 48 44 43 47 53 55 54 53 53 54 56 57 57 57 58 59 60 60 59 59 58 57 57 59 60 60 60 60 62 64 66 67 67 66 66 66 66 67 68 69 70 70 70 71 74 77 80 82 85 87 88 88 88 86 83 80 78 75 73 72 70 68 64 61 57 54 53 54 55 57 58 59 61 62 63 64 64 64 64 64 64 65
53 49 45 44 44 45 49 54 55 52 51 54 58 60 62 63 64 65 64 63 62 61 61 62 62 63 64 64 63 63 64 65 66 66 66 65 64 64 64 65 65 66 68 70 70 71 74 77 79 82 86 88 89 89 89 87 85 83 81 78 75 73 70 67 63 59 56 54 53 53 54 55 57 58 60 61 62 63 63 63 63 63 63 64 65
51 45 40 41 43 44 47 51 54 55 57 58 60 62 65 67 69 69 67 66 65 65 66 67 67 68 68 67 67 67 66 66 65 65 65 64 64 64 64 65 66 67 69 70 71 73 75 78 81 85 88 90 90 90 89 86 84 83 81 77 73 70 67 63 58 55 53 52 52 53 54 55 57 58 60 61 62 62 62 62 62 62 63 64 65
47 42 41 41 41 41 43 45 49 54 60 64 67 69 70 71 72 72 71 71 70 71 71 71 70 69 68 68 68 67 66 65 64 64 64 63 63 64 66 67 69 70 70 70 72 74 77 80 84 87 89 91 91 90 88 85 84 83 80 75 71 66 62 58 54 52 51 52 52 53 54 56 57 59 60 61 61 61 61 61 61 61 63 64 64
47 44 42 41 40 41 42 43 45 49 54 61 67 70 72 73 74 74 75 75 75 75 74 72 71 70 70 69 68 67 65 63 62 62 63 64 65 67 69 70 69 69 70 71 74 77 80 83 86 89 91 92 91 90 87 85 83 82 78 73 68 63 58 54 53 52 51 52 53 53 54 56 58 59 59 60 60 60 60 61 61 61 62 63 64
51 49 46 41 38 39 40 42 44 47 51 58 66 72 75 77 77 77 77 77 77 76 75 74 73 72 71 70 69 67 66 65 64 65 66 67 68 69 68 68 69 70 73 76 78 81 83 86 89 91 92 92 91 89 87 85 83 80 77 72 67 61 56 54 52 52 52 53 53 54 55 57 58 58 59 59 59 59 60 60 60 61 62 63 63
54 55 54 49 44 42 40 38 39 40 43 48 55 63 69 73 73 73 73 73 73 73 73 73 73 73 72 71 69 68 68 68 69 69 69 68 68 68 69 71 73 75 77 79 81 84 87 89 91 92 91 91 90 88 86 84 82 79 76 71 66 61 56 54 52 52 52 53 54 55 56 56 57 57 58 58 58 59 59 59 60 61 62 62 62
58 59 61 59 55 52 48 45 43 42 44 46 49 53 58 61 62 63 64 65 67 68 70 71 72 72 72 71 71 70 71 71 72 72 71 71 71 72 74 76 77 78 80 83 85 88 90 91 91 91 91 90 89 87 85 83 80 77 74 70 66 61 57 55 53 53 53 54 55 55 56 56 56 57 57 57 57 58 58 59 60 61 62 62 62
63 61 62 63 61 59 57 56 55 54 54 55 56 58 61 63 64 66 67 68 69 70 71 72 72 73 73 73 73 73 73 73 73 73 74 74 74 76 77 78 80 82 84 87 89 91 91 91 91 92 91 90 88 86 84 82 79 76 72 69 65 62 58 55 54 53 53 54 54 55 55 56 56 56 57 57 57 57 58 59 60 61 62 62 61
70 67 66 66 66 65 64 64 64 65 65 66 67 68 69 71 72 73 74 74 74 73 73 73 73 73 73 74 74 75 75 76 76 77 78 78 79 79 80 81 83 86 88 91 92 92 92 92 92 92 91 89 87 86 84 82 79 75 71 67 64 61 58 55 53 52 53 53 54 54 55 56 56 57 57 57 57 58 58 59 60 61 62 62 61
73 72 71 72 73 74 73 73 72 72 72 73 74 74 74 74 74 75 75 76 76 77 76 76 75 75 76 77 78 78 79 80 81 82 82 82 82 83 84 85 87 89 91 93 94 94 94 94 93 93 92 91 88 86 84 81 78 75 70 66 63 60 57 55 54 53 53 53 54 55 56 56 57 57 57 58 58 58 59 60 61 61 61 61 60
73 72 72 73 75 77 79 80 80 79 78 78 79 79 78 76 75 75 76 77 78 80 80 79 79 79 80 80 80 81 81 82 83 83 84 84 85 86 88 89 90 92 93 95 95 95 96 96 96 95 94 92 90 88 85 81 77 74 70 67 64 61 58 55 54 54 53 53 54 55 56 57 58 58 58 58 59 59 60 61 61 62 62 61 60
75 74 73 73 74 75 76 78 80 81 82 82 82 82 82 81 80 80 80 81 82 83 84 84 83 83 83 82 82 82 82 83 84 85 86 87 89 90 92 93 93 93 94 95 96 97 98 98 98 97 95 93 91 88 84 80 77 73 70 68 66 62 58 55 54 54 53 54 55 56 57 58 59 59 59 59 59 60 61 61 62 62 62 62 60
77 78 78 77 77 77 78 78 79 80 82 82 82 82 83 83 83 83 84 84 85 85 85 86 85 85 84 84 85 85 85 85 86 87 89 91 93 94 95 95 95 95 95 96 97 98 99 99 98 96 94 91 88 85 81 78 76 73 70 68 66 63 59 56 55 55 55 55 56 57 58 59 60 60 60 60 60 61 61 62 62 62 63 62 60
77 78 80 81 82 82 82 82 82 82 83 83 83 83 83 82 82 82 83 83 83 82 83 83 83 84 85 85 86 87 88 88 89 91 93 94 96 96 96 96 96 97 97 97 97 97 97 97 95 93 90 87 83 80 78 76 74 72 69 67 65 62 59 57 57 56 56 56 57 58 59 60 61 61 61 62 62 62 62 63 63 63 63 62 60
79 80 81 82 83 82 81 81 81 81 82 82 83 83 83 83 83 82 82 83 83 83 83 83 84 85 86 87 88 89 91 92 93 94 95 96 96 96 97 97 98 98 98 97 96 94 93 92 91 88 85 82 79 77 75 74 72 70 67 65 63 61 59 58 58 57 57 58 59 60 61 61 62 62 62 63 63 63 63 63 64 64 64 63 60
77 79 80 81 81 80 78 78 77 78 79 80 81 82 83 83 83 83 83 84 84 85 85 85 86 87 88 89 91 92 93 94 95 96 96 96 96 97 97 98 98 98 97 95 94 92 91 90 87 85 82 80 77 75 73 71 70 67 65 63 62 61 60 59 59 59 59 59 60 61 62 62 63 63 63 64 64 64 64 64 65 65 65 63 60
Wind_Direction
254 254 254 256 258 261 264 266 266 266 267 268 270 271 272 273 273 275 277 279 280 282 285 287 289 291 292 293 293 294 294 295 296 297 299 301 303 304 305 305 305 305 305 306 307 308 309 309 310 311 312 313 314 315 316 317 318 319 319 319 319 318 316 314 314 315 317 318 319 320 320 321 323 324 324 324 324 325 325 327 328 329 331 332 332
251 252 255 257 259 261 263 264 265 266 266 267 268 270 270 271 272 274 277 279 281 283 285 287 289 290 291 291 292 292 293 294 296 298 300 302 303 304 304 304 305 305 306 307 308 309 309 310 310 311 312 313 314 316 317 318 318 319 319 319 318 317 315 314 315 317 318 320 320 321 321 322 324 324 324 324 324 325 325 326 328 329 330 331 332
251 253 255 257 258 260 261 263 264 265 266 267 268 269 270 271 273 275 277 279 281 283 285 286 288 288 289 289 290 292 293 295 297 299 301 302 303 303 304 305 305 306 307 307 308 309 310 310 311 311 312 314 315 317 318 318 319 319 319 319 318 316 315 315 317 319 321 321 321 321 322 323 324 324 324 324 324 325 325 326 327 329 330 331 332
251 252 253 255 257 259 261 263 264 264 265 267 268 270 271 272 273 275 277 280 281 283 284 285 286 286 286 288 290 293 294 296 298 299 301 302 303 304 304 305 306 306 307 308 309 310 310 311 311 312 313 315 316 317 318 318 319 320 320 319 317 315 316 317 320 322 322 322 322 323 324 324 324 324 324 324 324 324 325 326 328 329 330 331 332
248 249 252 254 256 258 259 260 262 263 266 268 269 271 271 273 274 276 278 280 281 282 282 283 283 284 287 290 292 294 295 296 298 299 301 302 303 304 304 305 306 307 308 309 310 311 311 311 312 312 314 316 317 317 318 319 320 319 318 318 317 318 319 321 322 323 323 323 324 325 324 324 325 324 324 324 324 325 325 327 328 329 331 332 332
245 248 251 253 255 256 258 260 262 265 267 269 270 271 272 273 275 277 278 278 278 280 280 281 282 286 290 293 294 295 296 297 298 300 302 303 303 304 305 306 307 308 309 310 311 312 312 313 313 314 315 316 317 318 319 321 320 318 318 319 321 322 323 324 324 324 324 325 326 325 324 325 325 324 324 324 324 325 326 327 328 329 330 331 332
245 247 250 252 254 256 259 262 265 267 269 270 270 271 272 273 274 274 275 275 276 278 278 281 285 289 291 293 294 295 296 298 300 301 303 303 304 305 306 307 308 308 309 310 311 313 314 314 314 315 316 316 317 319 321 321 320 320 321 323 325 325 325 324 324 325 326 326 326 325 325 325 325 325 324 324 325 325 326 328 329 329 330 331 332
245 247 250 252 254 257 260 263 266 268 269 269 269 269 270 271 272 273 273 274 275 276 279 283 288 290 291 292 294 295 298 300 302 303 303 304 305 306 307 308 309 309 310 311 313 314 315 315 315 315 316 317 319 321 322 321 321 322 322 324 325 325 324 324 325 326 326 327 326 326 326 326 326 325 325 325 326 326 328 329 329 329 330 331 332
246 247 249 251 254 257 261 264 267 268 269 268 267 267 269 271 272 272 273 274 275 277 282 286 287 288 290 292 294 297 300 301 302 303 304 305 306 306 307 308 309 310 312 313 314 315 315 315 314 315 317 318 321 323 322 321 321 321 321 322 323 323 323 324 326 326 327 327 328 327 328 327 327 326 326 326 326 327 328 329 329 329 330 331 332
246 247 248 250 253 258 262 265 268 268 268 267 267 268 270 272 273 274 275 276 277 280 283 285 286 288 291 292 295 298 299 301 303 305 306 307 307 306 307 308 309 311 312 313 314 314 314 314 314 316 318 320 321 322 322 320 320 320 321 321 322 323 324 325 325 326 327 328 329 329 328 328 328 327 327 327 327 327 328 328 328 329 330 331 333
245 246 248 251 255 260 263 266 267 268 268 268 269 271 273 274 275 276 277 278 280 282 284 285 287 290 291 292 294 296 297 301 306 309 309 309 307 306 306 307 308 310 311 312 313 313 313 314 316 317 319 319 319 319 319 319 319 321 322 322 323 323 323 323 324 326 328 329 329 328 328 328 327 327 327 327 327 327 327 327 328 329 330 331 333
245 247 250 253 257 260 263 265 267 269 269 270 272 273 274 274 276 277 279 280 281 283 284 286 289 290 290 290 291 293 295 300 307 310 311 311 309 307 307 307 309 310 311 312 312 312 313 314 315 316 317 316 316 317 317 318 320 322 323 323 323 322 322 323 324 326 328 328 328 327 327 327 327 327 328 327 327 327 327 327 328 329 331 332 333
246 248 251 254 257 259 263 265 267 269 270 272 274 274 274 275 277 279 280 281 283 285 287 288 288 287 287 289 291 292 293 298 305 311 314 314 313 311 310 310 311 312 313 313 313 312 313 314 315 316 316 316 317 318 319 321 323 324 324 324 323 322 321 322 323 325 327 327 327 327 326 326 327 327 327 327 327 327 327 327 328 330 331 333 333
247 249 251 255 257 260 263 264 266 269 272 274 276 276 277 279 280 280 282 284 287 288 288 286 285 287 289 292 293 292 291 295 305 313 317 317 315 313 313 313 313 314 315 315 315 314 314 315 315 316 316 317 318 320 321 322 324 324 324 323 323 323 321 321 323 325 326 326 326 326 326 326 327 326 326 327 327 327 327 327 329 330 332 333 333
247 249 252 256 259 261 262 264 268 271 274 276 277 278 280 280 280 281 284 287 290 289 287 286 288 291 294 296 294 291 290 297 305 312 316 316 314 312 313 314 314 314 315 315 315 314 314 315 315 316 316 317 318 319 320 322 323 323 322 322 322 322 321 320 322 324 324 325 326 326 326 326 326 325 326 326 327 327 328 328 329 331 332 333 333
249 251 254 257 259 262 264 267 270 273 275 277 278 280 281 279 279 281 285 288 288 286 287 289 292 294 294 293 291 289 292 298 303 307 310 311 310 310 312 314 315 315 315 314 314 314 313 313 313 314 315 316 317 318 319 321 322 322 322 322 322 322 320 319 320 322 323 325 326 326 325 325 325 325 325 326 327 327 328 329 330 331 332 332 333
250 252 255 257 260 264 268 271 273 275 276 277 277 279 279 278 279 282 285 286 285 287 291 292 292 292 289 285 284 286 290 294 297 302 306 307 308 309 312 314 316 316 315 314 313 313 313 313 313 313 314 316 317 318 319 321 322 322 322 322 322 321 320 319 320 321 323 324 325 325 324 324 324 325 325 326 326 327 328 329 330 332 332 332 333
250 253 255 258 263 268 272 275 276 276 276 275 276 278 278 278 280 282 284 284 284 288 292 288 285 286 284 279 277 280 285 290 295 300 303 305 307 309 311 315 317 318 316 314 314 313 313 314 313 312 313 315 316 317 318 320 321 321 321 321 321 320 319 319 320 322 323 324 324 324 323 323 324 325 326 326 326 327 328 329 331 332 332 333 333
250 253 257 262 267 272 274 275 275 274 274 274 276 278 277 278 280 282 284 283 279 278 276 270 270 274 275 273 276 279 284 290 296 298 300 303 305 307 310 314 317 316 315 313 313 313 313 314 312 310 312 314 315 317 318 319 319 318 318 320 320 319 319 320 321 322 322 323 324 323 323 323 324 326 326 326 326 327 329 330 331 332 332 333 333
252 255 260 265 268 271 273 273 273 273 273 274 275 275 274 276 277 279 280 277 273 271 267 264 265 268 270 273 279 283 287 292 295 296 298 303 304 304 309 314 315 314 313 312 312 312 312 312 311 310 311 313 315 316 317 317 317 315 313 317 320 319 319 319 320 321 321 322 323 323 322 323 326 327 326 325 326 328 329 330 331 332 332 332 332
253 257 260 263 266 269 272 273 274 274 273 272 272 271 272 273 275 277 277 274 272 270 268 267 269 271 273 279 284 286 289 294 296 296 299 303 302 302 308 312 312 312 312 311 310 310 310 310 310 310 311 313 315 316 316 315 316 314 310 312 317 318 318 318 319 320 321 322 323 322 323 325 327 327 325 325 327 328 330 331 331 332 332 332 332
245 251 256 261 266 271 273 273 274 273 271 270 270 270 270 272 273 275 275 272 270 268 268 270 273 276 278 280 283 286 290 294 295 294 297 300 300 300 305 309 309 309 310 309 309 310 309 310 311 312 313 314 315 316 315 315 315 314 311 311 313 315 316 317 318 319 321 322 322 322 324 327 327 326 325 326 327 329 330 330 331 331 331 331 332
240 245 251 257 263 267 269 271 272 272 271 271 270 269 269 272 274 274 272 268 265 265 268 269 271 274 276 276 278 283 289 292 291 289 292 297 298 298 301 303 304 305 306 306 308 310 310 311 313 315 316 317 317 317 316 314 314 313 312 311 311 313 315 316 317 318 320 321 321 324 327 327 326 325 325 325 327 329 329 330 330 331 331 331 333
238 240 241 242 243 245 249 254 257 262 269 273 273 271 271 272 274 273 270 268 264 262 264 266 268 270 272 274 278 283 286 287 288 289 293 296 296 295 297 298 301 303 304 305 307 310 312 314 316 319 320 319 319 318 317 315 313 312 311 311 311 312 314 315 316 318 320 321 323 326 327 325 325 324 324 325 328 328 329 330 330 330 331 331 333
239 240 239 239 239 239 241 244 246 251 261 270 274 276 275 273 274 276 275 273 269 265 265 267 269 271 274 277 278 279 281 284 287 289 292 292 291 292 294 297 299 301 302 303 306 310 312 315 318 321 322 321 321 320 319 317 314 313 313 312 312 313 314 315 316 318 319 322 325 326 325 324 324 324 324 325 327 328 328 329 330 330 331 332 333
239 241 241 241 243 243 244 244 245 247 254 261 268 275 276 271 268 269 269 267 267 270 272 272 271 272 274 275 276 278 282 285 286 287 289 290 290 292 295 297 298 299 299 300 304 309 311 313 318 321 322 322 323 323 322 320 318 317 316 315 314 313 313 314 315 317 320 323 325 324 323 323 323 323 324 325 327 327 328 329 329 330 331 332 333
240 243 243 243 245 247 247 246 246 247 249 253 259 268 274 269 258 255 257 260 264 270 274 273 272 272 273 274 276 279 282 284 285 287 289 291 292 294 295 296 297 297 297 299 303 307 309 312 316 319 321 322 323 324 324 322 321 320 318 317 315 314 313 313 315 318 321 322 322 322 322 323 322 322 324 325 326 326 327 328 329 330 331 332 333
242 246 247 247 247 249 251 249 247 247 249 251 254 262 269 270 263 259 262 266 268 270 271 271 272 274 272 271 273 277 281 284 286 288 289 291 293 294 294 294 295 296 297 298 302 306 308 310 313 316 319 321 323 324 324 323 322 321 320 319 317 315 313 314 316 318 320 320 320 321 322 322 321 322 323 324 325 326 327 328 329 330 331 333 334
244 246 248 249 249 251 253 252 249 249 251 253 255 259 263 266 265 262 262 261 261 264 267 269 271 271 268 266 268 274 280 283 284 286 289 292 293 293 293 293 295 296 296 297 300 304 306 308 311 314 317 319 321 323 324 323 323 322 321 320 318 315 314 315 317 318 317 317 318 320 320 320 321 321 323 323 324 326 327 328 329 330 332 333 334
243 245 247 249 249 250 252 253 251 250 251 254 256 257 260 263 265 265 261 255 255 259 264 268 270 271 270 269 270 272 275 277 280 283 287 290 291 292 293 295 296 295 294 295 299 302 305 307 309 311 315 318 320 322 323 323 323 323 321 320 318 316 315 315 315 315 315 316 317 318 319 320 320 321 322 322 323 325 326 327 329 330 332 333 335
241 244 246 248 250 250 252 253 253 253 253 253 254 255 258 260 263 266 267 263 260 262 264 267 268 270 271 272 271 271 272 274 276 280 283 286 288 291 294 295 296 295 295 296 299 301 303 306 307 310 314 318 321 322 323 323 323 322 321 320 319 317 315 314 313 313 314 315 316 317 318 319 319 320 321 321 323 325 326 327 329 330 332 334 335
241 243 245 247 249 250 252 253 253 254 255 256 255 255 256 257 260 265 267 264 261 261 262 264 266 268 271 273 273 273 273 275 277 279 281 284 287 291 293 294 295 295 296 297 299 301 303 305 308 312 315 318 320 321 322 322 322 322 321 320 318 315 313 311 311 311 313 314 315 317 318 318 319 320 320 321 323 324 325 327 328 330 332 334 336
240 243 246 247 249 253 254 252 251 253 256 257 255 253 252 254 259 263 261 258 258 259 260 263 266 269 272 274 275 274 275 277 278 280 282 285 288 290 292 293 295 297 298 298 299 302 304 307 311 314 316 318 319 320 320 320 321 322 321 319 316 313 310 310 310 311 313 314 314 316 317 317 318 319 320 321 322 323 325 327 328 329 332 334 336
240 245 249 250 251 254 253 250 249 251 253 252 250 250 251 253 257 258 256 256 259 261 262 265 269 272 274 275 275 276 277 279 282 284 286 287 288 290 292 294 296 298 299 300 301 304 307 309 312 314 315 317 317 318 319 320 321 322 321 317 314 311 309 309 310 311 312 313 314 315 316 317 317 318 319 320 321 323 325 326 327 329 331 334 335
241 245 247 245 243 244 246 247 249 251 250 247 245 246 250 253 255 256 257 259 261 263 265 269 273 276 278 278 277 278 281 283 286 287 287 288 289 291 293 295 297 298 300 301 302 304 306 308 310 311 313 314 315 316 318 320 321 321 319 316 312 310 309 309 309 311 311 312 313 315 316 316 316 317 318 319 321 323 324 325 327 329 331 333 335
239 241 243 243 241 242 247 249 248 246 244 244 244 246 249 252 256 258 260 261 263 265 268 272 275 278 280 280 280 282 284 285 286 287 287 289 291 292 293 294 295 296 298 299 300 301 303 304 306 308 310 312 313 315 317 319 320 320 318 315 312 309 308 309 309 310 311 312 313 314 314 314 315 316 317 318 320 322 323 324 326 329 330 333 334
237 238 241 244 244 245 248 250 247 243 241 242 245 248 251 253 256 259 261 263 265 269 272 274 276 279 280 281 282 284 285 285 286 287 289 290 291 291 292 293 294 295 296 297 297 298 299 300 303 306 308 310 312 314 316 318 319 320 318 315 312 309 308 309 309 310 311 311 312 313 313 313 314 315 316 317 320 322 322 324 326 328 330 332 333
232 231 234 240 242 242 243 245 246 246 245 246 248 251 253 255 257 259 261 263 266 270 273 274 276 277 278 280 283 284 284 285 286 287 288 289 289 289 290 292 293 294 294 294 294 296 297 299 302 305 307 309 311 313 315 317 318 319 318 315 312 310 309 309 309 310 310 311 311 312 312 312 313 313 314 317 319 320 322 323 325 327 329 331 332
226 224 227 233 237 238 239 241 244 246 247 248 249 250 253 255 257 259 260 263 266 269 271 273 274 275 277 279 281 282 282 283 284 285 285 286 287 288 290 291 291 292 293 293 294 296 298 300 302 305 307 309 311 313 315 316 318 318 317 316 313 311 310 309 309 310 310 310 310 311 311 310 311 312 314 316 318 319 321 322 325 327 328 329 330
224 221 223 226 228 232 237 241 245 248 250 251 251 251 252 254 256 258 260 263 265 267 269 271 272 274 276 278 279 280 280 280 281 283 284 286 287 288 289 290 291 292 293 295 296 297 299 301 303 305 307 309 311 313 315 316 316 317 317 315 313 311 310 309 309 309 309 309 309 309 309 308 309 311 314 315 317 319 320 322 324 325 327 328 329
225 222 222 223 224 228 234 238 240 243 245 248 249 250 251 253 255 258 260 262 264 266 268 270 272 274 276 277 278 279 279 279 281 282 284 285 286 286 287 289 292 293 295 296 297 299 301 303 304 305 307 310 311 313 314 315 315 316 315 314 313 311 309 308 308 308 308 308 307 307 306 307 309 311 313 315 316 318 319 321 322 324 325 327 328
224 223 223 225 229 232 235 235 235 235 237 240 244 248 250 252 254 258 261 264 266 268 269 271 273 275 276 278 278 279 279 280 282 283 284 285 285 286 288 290 292 294 295 296 298 299 301 302 304 306 308 310 311 312 313 313 313 313 313 312 310 308 307 307 307 307 307 306 304 304 305 307 309 311 312 314 315 317 318 319 321 322 324 326 327
225 223 222 226 231 235 235 235 235 238 240 242 246 250 253 254 257 260 263 266 268 270 271 273 274 276 277 278 278 279 281 282 283 284 285 286 287 288 289 291 293 294 296 297 298 299 301 303 305 307 308 309 310 310 310 310 310 310 310 309 308 306 304 304 305 304 303 302 302 304 306 308 309 311 312 313 314 316 317 318 319 321 322 324 325
228 227 226 227 231 235 237 238 239 241 243 246 249 252 255 257 259 261 263 266 268 270 272 273 274 275 276 277 278 280 281 283 284 285 286 287 288 289 291 292 294 295 296 297 298 300 302 303 305 306 307 307 307 307 307 307 307 307 306 306 305 303 301 300 300 300 300 301 303 305 307 308 309 310 311 313 314 315 316 317 318 319 321 323 324
233 232 232 233 234 236 238 241 243 244 246 248 251 253 255 257 259 260 262 264 266 268 270 271 273 274 276 277 279 280 282 283 284 285 286 288 289 290 291 293 294 295 296 297 298 300 302 303 303 304 305 305 305 305 305 305 305 304 305 305 305 303 300 298 297 298 299 302 304 306 307 308 309 310 310 312 313 314 315 315 317 318 320 321 322
238 238 238 238 237 238 240 242 244 246 249 251 253 255 256 258 259 260 261 263 265 267 269 271 273 274 276 277 279 280 282 283 284 285 286 287 289 290 291 293 294 295 296 297 299 300 301 301 302 302 303 303 303 303 303 303 303 304 304 304 305 304 301 298 298 299 301 303 305 307 307 308 308 308 309 311 312 312 313 314 315 317 319 320 320
239 240 241 240 240 242 243 245 247 250 252 254 255 256 257 257 259 260 262 263 265 267 269 270 272 274 276 277 278 280 281 282 284 285 286 287 288 290 291 292 293 295 296 297 298 299 300 300 301 302 302 302 302 303 303 303 303 303 303 303 303 303 302 300 300 301 303 305 306 306 307 306 307 307 308 309 310 311 312 312 314 316 317 318 319
240 241 242 243 244 246 248 250 252 254 255 256 257 258 258 259 261 262 264 265 267 268 269 271 272 274 275 276 278 279 280 281 283 284 285 286 288 289 290 291 293 294 295 296 297 299 299 300 301 301 301 301 302 302 302 302 302 302 302 302 302 302 301 300 300 302 303 305 305 305 305 305 305 306 307 308 309 309 310 311 313 314 316 317 317
241 242 244 245 247 248 250 252 254 254 255 256 257 258 260 262 263 265 266 268 269 269 270 271 273 274 275 276 277 278 279 280 281 282 284 285 287 288 290 291 292 294 295 296 297 298 299 299 300 300 299 299 300 300 300 299 300 300 301 301 300 300 299 299 300 301 303 303 304 304 304 304 304 305 306 307 307 308 309 310 312 313 314 315 315
243 244 245 247 249 251 252 254 254 255 255 255 256 257 259 261 262 264 266 267 267 268 269 270 271 272 273 274 275 276 278 279 280 281 283 284 286 288 289 291 292 293 294 295 297 297 298 298 297 297 297 297 297 297 297 297 298 298 299 298 298 297 297 298 299 301 302 302 303 303 302 302 303 304 304 305 306 307 308 309 311 312 313 313 313
245 246 247 248 250 251 252 253 254 255 255 255 256 257 258 259 261 262 263 264 265 266 267 268 269 270 272 273 274 276 277 278 280 281 282 284 285 287 288 290 291 292 293 294 295 296 296 295 295 294 294 295 295 295 295 296 296 297 297 297 296 296 297 298 299 300 301 301 301 301 300 301 302 302 302 303 304 306 307 308 310 311 311 311 311
Height
10676 10676 10677 10679 10679 10680 10682 10684 10686 10687 10687 10687 10687 10686 10687 10687 10686 10686 10687 10687 10687 10687 10686 10686 10685 10684 10683 10681 10680 10678 10676 10674 10673 10671 10670 10668 10666 10664 10662 10660 10658 10655 10653 10650 10647 10645 10642 10639 10636 10633 10631 10628 10625 10622 10618 10615 10611 10608 10604 10601 10598 10594 10591 10588 10585 10581 10577 10574 10570 10566 10561 10556 10551 10546 10541 10536 10531 10526 10520 10515 10510 10505 10501 10495 10488
10669 10670 10672 10674 10675 10676 10678 10679 10680 10681 10681 10681 10681 10681 10682 10682 10681 10681 10682 10682 10682 10682 10682 10681 10680 10679 10678 10676 10674 10673 10671 10670 10668 10667 10666 10664 10662 10660 10657 10655 10653 10651 10648 10646 10643 10640 10637 10634 10631 10629 10626 10623 10620 10617 10614 10611 10607 10604 10601 10597 10594 10590 10587 10584 10580 10576 10572 10568 10564 10560 10556 10551 10546 10540 10534 10530 10525 10521 10516 10510 10505 10500 10495 10490 10483
10665 10666 10668 10669 10670 10672 10673 10674 10675 10675 10676 10676 10677 10677 10677 10677 10677 10677 10678 10678 10678 10677 10676 10675 10674 10674 10673 10671 10670 10668 10667 10665 10664 10663 10661 10659 10657 10655 10653 10650 10648 10646 10643 10641 10638 10636 10633 10630 10627 10624 10621 10619 10616 10613 10609 10606 10603 10600 10597 10594 10590 10587 10583 10579 10575 10571 10567 10563 10559 10555 10550 10545 10541 10535 10529 10523 10518 10514 10510 10506 10501 10495 10489 10484 10478
10661 10662 10663 10664 10666 10667 10668 10669 10670 10670 10671 10672 10672 10673 10672 10672 10672 10672 10673 10673 10672 10672 10671 10670 10669 10668 10667 10666 10665 10664 10662 10661 10659 10658 10656 10654 10652 10650 10648 10646 10643 10641 10639 10636 10634 10631 10628 10625 10622 10619 10617 10614 10612 10608 10605 10602 10599 10596 10593 10590 10586 10582 10578 10574 10570 10566 10562 10558 10554 10549 10544 10539 10535 10530 10524 10518 10512 10507 10502 10498 10495 10490 10484 10477 10471
10656 10657 10659 10660 10662 10663 10664 10665 10665 10666 10667 10668 10668 10668 10667 10667 10667 10668 10668 10668 10667 10666 10666 10665 10664 10663 10662 10662 10660 10659 10658 10656 10655 10653 10651 10649 10647 10645 10643 10641 10639 10637 10634 10632 10629 10627 10624 10621 10618 10615 10613 10610 10607 10604 10601 10598 10595 10591 10588 10586 10582 10578 10573 10569 10565 10561 10557 10553 10548 10543 10538 10534 10529 10525 10520 10514 10507 10501 10495 10490 10486 10483 10479 10473 10466
10652 10653 10655 10656 10658 10659 10660 10660 10661 10662 10663 10664 10664 10663 10663 10663 10663 10663 10663 10663 10662 10661 10661 10660 10659 10658 10657 10656 10655 10654 10653 10652 10650 10648 10646 10644 10642 10640 10639 10636 10634 10632 10630 10628 10625 10623 10620 10617 10614 10611 10609 10606 10603 10600 10597 10594 10590 10586 10583 10580 10576 10572 10568 10564 10560 10556 10552 10547 10543 10538 10533 10529 10524 10519 10514 10509 10503 10497 10491 10484 10479 10474 10471 10467 10462
10648 10650 10651 10653 10654 10655 10655 10656 10657 10658 10659 10659 10659 10658 10658 10658 10658 10659 10659 10658 10657 10657 10656 10654 10653 10653 10652 10651 10650 10649 10648 10647 10646 10644 10642 10640 10638 10636 10634 10632 10630 10628 10625 10623 10621 10619 10616 10613 10611 10607 10604 10602 10599 10596 10593 10589 10585 10581 10576 10572 10569 10566 10562 10559 10555 10551 10547 10543 10538 10533 10528 10523 10519 10514 10508 10502 10497 10491 10486 10480 10474 10468 10463 10459 10455
10644 10646 10648 10649 10650 10650 10651 10652 10653 10654 10655 10655 10654 10654 10654 10654 10654 10654 10654 10653 10653 10652 10650 10649 10648 10648 10647 10646 10645 10644 10644 10643 10641 10639 10637 10635 10633 10631 10629 10627 10625 10623 10621 10619 10617 10615 10612 10610 10607 10604 10600 10598 10595 10593 10589 10585 10580 10575 10570 10566 10564 10561 10558 10554 10550 10546 10542 10538 10534 10528 10523 10519 10514 10508 10503 10497 10491 10485 10479 10473 10468 10462 10457 10451 10445
10641 10643 10644 10645 10646 10646 10647 10648 10649 10650 10650 10650 10650 10650 10650 10650 10650 10649 10649 10649 10648 10647 10645 10644 10643 10643 10642 10642 10641 10640 10639 10638 10636 10634 10632 10630 10629 10627 10625 10623 10621 10619 10617 10615 10613 10611 10608 10605 10602 10600 10597 10593 10590 10587 10584 10580 10576 10572 10568 10564 10561 10557 10553 10549 10545 10541 10537 10534 10529 10524 10519 10514 10509 10504 10498 10492 10487 10481 10474 10468 10462 10456 10451 10446 10439
10637 10639 10640 10641 10642 10643 10644 10645 10645 10646 10646 10646 10646 10646 10646 10646 10645 10645 10644 10644 10643 10642 10641 10640 10639 10638 10638 10637 10637 10636 10634 10633 10631 10630 10627 10626 10624 10622 10620 10619 10616 10615 10613 10611 10609 10606 10604 10601 10598 10595 10592 10588 10585 10582 10579 10576 10573 10570 10566 10562 10557 10553 10549 10545 10541 10537 10533 10529 10525 10520 10515 10510 10505 10499 10493 10488 10482 10476 10470 10464 10457 10450 10444 10439 10434
10633 10635 10636 10637 10638 10639 10640 10641 10642 10642 10642 10642 10642 10642 10642 10642 10641 10640 10640 10639 10638 10637 10636 10635 10634 10634 10634 10633 10632 10631 10630 10628 10626 10625 10623 10621 10619 10617 10616 10614 10612 10611 10609 10607 10605 10602 10599 10596 10593 10590 10587 10585 10582 10579 10576 10573 10570 10566 10562 10558 10553 10549 10545 10542 10538 10534 10530 10525 10521 10515 10510 10505 10500 10495 10489 10483 10477 10471 10466 10460 10454 10447 10439 10432 10426
10629 10631 10632 10634 10635 10636 10637 10638 10638 10638 10637 10637 10638 10638 10638 10637 10636 10635 10635 10634 10633 10632 10631 10631 10630 10630 10629 10628 10628 10627 10625 10624 10622 10620 10618 10616 10615 10613 10612 10610 10608 10607 10605 10603 10601 10598 10596 10592 10589 10587 10584 10582 10579 10576 10573 10570 10566 10562 10558 10553 10549 10546 10542 10538 10534 10530 10526 10521 10517 10511 10506 10501 10496 10490 10485 10479 10473 10468 10462 10456 10450 10444 10437 10429 10421
10626 10627 10628 10630 10631 10632 10633 10634 10634 10633 10633 10633 10633 10633 10633 10632 10631 10631 10630 10629 10629 10628 10627 10626 10625 10625 10624 10623 10623 10622 10621 10619 10617 10615 10613 10612 10610 10609 10607 10606 10604 10602 10601 10599 10597 10595 10592 10589 10586 10584 10581 10578 10575 10572 10569 10565 10561 10557 10553 10549 10546 10542 10538 10534 10530 10526 10521 10517 10512 10507 10502 10496 10491 10485 10480 10474 10469 10463 10458 10453 10447 10442 10435 10428 10420
10622 10623 10624 10626 10627 10629 10630 10630 10629 10629 10629 10628 10629 10628 10628 10627 10627 10626 10625 10625 10624 10623 10622 10621 10620 10620 10619 10619 10618 10617 10616 10614 10612 10610 10609 10608 10606 10605 10603 10602 10600 10598 10597 10595 10593 10591 10588 10585 10582 10580 10576 10573 10570 10566 10563 10560 10556 10553 10549 10546 10542 10538 10534 10530 10527 10522 10517 10512 10507 10502 10497 10491 10486 10480 10475 10469 10464 10459 10453 10448 10444 10438 10432 10426 10419
10617 10619 10620 10622 10623 10624 10625 10626 10626 10625 10624 10624 10624 10624 10624 10623 10622 10621 10620 10620 10619 10618 10616 10616 10615 10615 10615 10614 10613 10613 10612 10610 10608 10606 10604 10603 10602 10600 10599 10598 10596 10595 10593 10591 10589 10587 10584 10581 10579 10576 10573 10570 10566 10563 10560 10556 10553 10550 10546 10542 10538 10534 10530 10526 10523 10518 10514 10508 10503 10497 10492 10487 10481 10476 10470 10465 10460 10455 10449 10444 10439 10433 10428 10422 10416
10614 10615 10617 10618 10619 10620 10621 10622 10622 10621 10620 10620 10619 10619 10619 10618 10617 10616 10616 10615 10614 10612 10611 10611 10611 10611 10610 10609 10609 10608 10607 10606 10603 10602 10600 10599 10597 10596 10595 10594 10592 10591 10589 10587 10585 10583 10581 10579 10576 10573 10570 10567 10564 10561 10557 10554 10550 10546 10542 10538 10535 10531 10527 10523 10519 10514 10510 10505 10499 10493 10487 10482 10477 10471 10465 10460 10455 10450 10445 10440 10434 10428 10422 10417 10411
10610 10611 10613 10614 10614 10616 10617 10618 10618 10617 10616 10615 10614 10614 10614 10613 10612 10611 10611 10610 10609 10608 10607 10605 10605 10605 10605 10604 10604 10604 10603 10601 10599 10598 10596 10594 10593 10591 10590 10589 10588 10587 10585 10583 10581 10579 10577 10575 10572 10570 10566 10563 10560 10557 10554 10550 10547 10543 10539 10534 10531 10527 10523 10519 10515 10510 10505 10501 10495 10489 10483 10477 10472 10467 10461 10456 10451 10445 10440 10435 10430 10424 10418 10412 10405
10606 10608 10608 10609 10610 10612 10613 10613 10613 10612 10611 10610 10610 10609 10609 10608 10607 10607 10606 10606 10606 10604 10602 10599 10599 10600 10600 10600 10599 10599 10598 10597 10595 10593 10591 10590 10587 10585 10584 10583 10582 10581 10579 10578 10577 10575 10573 10571 10568 10565 10562 10559 10556 10552 10549 10546 10542 10538 10534 10530 10527 10523 10519 10515 10510 10506 10501 10496 10491 10485 10479 10472 10467 10462 10457 10451 10446 10441 10436 10430 10425 10420 10415 10408 10401
10602 10604 10605 10606 10607 10608 10608 10608 10608 10607 10606 10606 10605 10605 10603 10602 10602 10602 10602 10602 10601 10600 10599 10596 10594 10595 10596 10596 10595 10595 10595 10594 10591 10588 10587 10585 10582 10580 10579 10578 10577 10576 10575 10573 10572 10571 10569 10566 10564 10561 10558 10555 10551 10548 10544 10541 10537 10534 10530 10526 10522 10519 10515 10510 10506 10501 10496 10491 10486 10480 10474 10468 10463 10457 10452 10447 10442 10437 10432 10426 10420 10415 10409 10404 10398
10599 10600 10602 10603 10603 10603 10603 10603 10602 10602 10602 10601 10601 10599 10598 10598 10597 10597 10597 10597 10596 10595 10595 10593 10590 10591 10592 10592 10591 10590 10591 10590 10587 10584 10583 10580 10575 10573 10574 10574 10573 10571 10571 10569 10568 10566 10564 10562 10559 10557 10554 10550 10547 10543 10540 10536 10533 10529 10525 10521 10518 10514 10510 10506 10501 10496 10491 10486 10481 10475 10469 10464 10458 10453 10447 10442 10437 10432 10427 10421 10415 10409 10404 10398 10393
10594 10595 10596 10597 10597 10598 10598 10598 10598 10597 10597 10596 10596 10594 10593 10593 10592 10592 10592 10592 10592 10591 10591 10590 10589 10587 10587 10586 10585 10584 10586 10586 10583 10579 10578 10576 10570 10566 10567 10568 10567 10566 10565 10564 10563 10562 10560 10557 10555 10552 10549 10545 10542 10539 10535 10532 10528 10524 10521 10517 10513 10509 10505 10501 10496 10491 10486 10481 10475 10470 10464 10458 10453 10448 10442 10438 10433 10427 10422 10417 10411 10405 10399 10394 10388
10588 10589 10591 10592 10593 10594 10594 10593 10593 10592 10591 10591 10590 10588 10587 10587 10587 10587 10587 10588 10588 10587 10587 10587 10586 10585 10583 10582 10579 10577 10579 10582 10580 10576 10574 10573 10568 10563 10563 10564 10563 10562 10561 10560 10559 10557 10555 10553 10551 10548 10545 10541 10538 10534 10530 10527 10523 10519 10516 10512 10508 10504 10500 10495 10491 10485 10480 10475 10470 10465 10459 10453 10448 10443 10438 10433 10428 10423 10418 10413 10407 10401 10395 10389 10383
10584 10586 10588 10588 10588 10589 10589 10589 10589 10588 10586 10586 10584 10583 10583 10583 10583 10582 10582 10582 10582 10582 10582 10583 10583 10583 10582 10579 10575 10573 10574 10577 10578 10575 10573 10572 10568 10564 10562 10561 10560 10559 10558 10556 10555 10553 10551 10549 10546 10544 10541 10537 10533 10530 10526 10522 10519 10515 10511 10507 10503 10499 10494 10490 10485 10480 10475 10470 10465 10459 10454 10448 10443 10438 10433 10428 10423 10418 10413 10408 10403 10397 10391 10385 10379
10578 10578 10578 10578 10579 10580 10581 10581 10582 10582 10582 10582 10580 10579 10579 10579 10579 10578 10577 10577 10577 10577 10577 10578 10578 10578 10578 10576 10573 10570 10570 10571 10572 10570 10569 10568 10564 10560 10559 10557 10556 10555 10554 10552 10551 10549 10547 10544 10542 10539 10536 10533 10529 10525 10521 10518 10514 10510 10506 10502 10497 10492 10488 10483 10479 10474 10469 10464 10458 10453 10448 10442 10437 10433 10428 10423 10418 10413 10408 10404 10399 10393 10387 10381 10375
10570 10570 10571 10572 10572 10573 10572 10572 10573 10575 10576 10578 10577 10575 10575 10576 10574 10574 10573 10572 10572 10572 10571 10571 10572 10574 10574 10573 10569 10565 10563 10565 10566 10564 10563 10562 10559 10556 10553 10552 10551 10550 10549 10547 10546 10544 10542 10540 10537 10534 10532 10528 10525 10521 10517 10513 10509 10505 10501 10496 10491 10486 10481 10477 10473 10468 10463 10458 10452 10447 10442 10437 10432 10427 10423 10418 10414 10409 10404 10399 10394 10388 10382 10376 10370
10563 10563 10566 10568 10568 10568 10569 10569 10570 10571 10572 10573 10572 10570 10572 10573 10572 10571 10571 10569 10566 10566 10566 10566 10567 10570 10570 10567 10562 10557 10557 10558 10558 10558 10558 10556 10554 10551 10549 10547 10546 10545 10543 10542 10541 10539 10537 10535 10532 10529 10526 10523 10520 10516 10512 10508 10504 10500 10495 10491 10486 10481 10476 10471 10467 10463 10457 10451 10446 10442 10437 10432 10427 10422 10417 10413 10409 10405 10399 10394 10389 10384 10378 10372 10366
10558 10558 10561 10563 10564 10564 10566 10567 10568 10567 10567 10569 10568 10565 10566 10571 10571 10568 10568 10567 10563 10561 10561 10561 10561 10564 10566 10562 10555 10551 10550 10550 10550 10551 10551 10549 10548 10546 10544 10541 10540 10539 10538 10537 10535 10533 10531 10529 10526 10523 10520 10517 10514 10510 10507 10503 10499 10494 10490 10486 10482 10477 10471 10466 10462 10457 10450 10445 10440 10436 10432 10426 10421 10417 10412 10408 10404 10400 10395 10390 10384 10379 10373 10367 10361
10554 10555 10556 10558 10559 10560 10562 10563 10564 10564 10563 10564 10564 10560 10559 10562 10565 10564 10565 10565 10560 10554 10553 10554 10555 10558 10560 10558 10551 10546 10545 10545 10544 10544 10544 10542 10541 10540 10538 10536 10534 10533 10532 10531 10529 10527 10525 10523 10520 10517 10514 10510 10507 10504 10501 10497 10492 10488 10484 10480 10476 10470 10465 10460 10455 10449 10443 10439 10435 10431 10426 10421 10417 10412 10408 10404 10400 10395 10390 10385 10379 10374 10368 10362 10356
10549 10550 10550 10551 10553 10556 10557 10557 10559 10560 10559 10558 10560 10558 10553 10552 10555 10559 10562 10561 10554 10547 10545 10547 10549 10551 10553 10552 10549 10545 10543 10541 10538 10536 10537 10536 10535 10534 10533 10531 10529 10528 10526 10525 10523 10521 10519 10517 10513 10510 10507 10503 10500 10497 10494 10490 10486 10482 10477 10473 10468 10463 10458 10452 10447 10442 10438 10434 10430 10425 10421 10416 10412 10408 10403 10399 10395 10390 10385 10380 10375 10369 10363 10357 10351
10542 10543 10543 10544 10547 10550 10551 10552 10554 10555 10554 10553 10554 10554 10550 10547 10547 10552 10555 10553 10546 10542 10541 10541 10542 10543 10544 10545 10544 10542 10541 10539 10535 10533 10532 10531 10529 10529 10527 10525 10524 10522 10521 10519 10518 10515 10513 10511 10507 10503 10500 10496 10492 10489 10486 10482 10478 10475 10470 10466 10461 10456 10451 10445 10440 10436 10432 10429 10424 10420 10416 10411 10407 10403 10399 10394 10390 10386 10381 10376 10371 10365 10359 10353 10347
10535 10536 10536 10538 10541 10544 10546 10549 10550 10549 10548 10548 10548 10547 10546 10544 10542 10543 10546 10545 10541 10538 10535 10534 10535 10536 10536 10537 10537 10536 10536 10535 10532 10531 10529 10527 10525 10524 10522 10520 10518 10516 10514 10513 10511 10509 10507 10504 10500 10497 10494 10489 10484 10480 10477 10474 10471 10467 10463 10458 10453 10449 10444 10439 10434 10430 10427 10423 10418 10414 10410 10406 10402 10399 10395 10390 10386 10381 10377 10372 10366 10361 10356 10350 10344
10529 10531 10532 10533 10536 10539 10542 10545 10545 10543 10542 10542 10542 10541 10541 10540 10537 10537 10537 10536 10533 10530 10527 10527 10528 10529 10529 10529 10529 10529 10529 10528 10527 10527 10525 10523 10520 10518 10516 10514 10512 10509 10508 10507 10504 10502 10500 10496 10492 10489 10485 10482 10478 10475 10471 10468 10465 10461 10456 10451 10446 10441 10437 10433 10429 10425 10421 10417 10412 10408 10405 10401 10397 10394 10390 10386 10381 10377 10372 10367 10362 10357 10352 10346 10341
10525 10527 10529 10532 10534 10536 10537 10539 10539 10537 10535 10534 10534 10534 10534 10533 10531 10530 10529 10527 10524 10522 10521 10521 10523 10524 10523 10522 10522 10522 10522 10522 10521 10521 10519 10518 10515 10512 10509 10507 10504 10502 10501 10499 10496 10494 10492 10488 10484 10481 10477 10474 10471 10469 10465 10462 10458 10453 10448 10443 10438 10434 10431 10427 10423 10419 10415 10411 10406 10403 10399 10396 10392 10389 10385 10380 10376 10372 10368 10363 10358 10353 10348 10343 10337
10523 10526 10528 10531 10533 10532 10530 10530 10531 10531 10529 10527 10526 10525 10525 10524 10523 10522 10520 10518 10517 10516 10516 10516 10517 10518 10517 10516 10515 10515 10515 10516 10515 10514 10512 10510 10507 10504 10502 10499 10496 10494 10492 10490 10487 10485 10483 10480 10476 10473 10470 10467 10464 10461 10458 10454 10450 10445 10440 10435 10431 10427 10423 10420 10416 10413 10409 10405 10400 10397 10394 10390 10387 10384 10380 10376 10372 10368 10363 10358 10354 10349 10344 10339 10334
10518 10519 10519 10522 10526 10526 10522 10521 10524 10525 10523 10519 10516 10515 10515 10515 10514 10513 10512 10511 10511 10511 10510 10511 10512 10512 10510 10508 10507 10508 10509 10509 10508 10506 10504 10502 10499 10496 10494 10492 10489 10486 10483 10481 10479 10477 10475 10472 10470 10467 10464 10461 10458 10454 10451 10446 10442 10438 10433 10428 10424 10419 10416 10413 10409 10406 10403 10399 10395 10392 10389 10385 10382 10379 10375 10371 10368 10363 10358 10354 10349 10345 10340 10335 10330
10508 10510 10510 10513 10518 10518 10514 10513 10516 10518 10515 10510 10507 10506 10506 10506 10505 10504 10504 10504 10505 10505 10504 10504 10505 10504 10502 10499 10500 10501 10502 10501 10500 10497 10495 10493 10491 10489 10487 10485 10482 10480 10476 10474 10472 10470 10468 10465 10463 10461 10458 10454 10451 10448 10444 10440 10435 10431 10426 10421 10416 10412 10408 10405 10403 10400 10396 10393 10390 10387 10384 10380 10377 10374 10370 10366 10363 10359 10354 10349 10345 10341 10336 10331 10327
10503 10506 10507 10507 10509 10510 10507 10506 10508 10508 10505 10501 10499 10498 10498 10497 10497 10497 10497 10498 10498 10498 10497 10496 10496 10495 10493 10491 10492 10493 10493 10492 10491 10488 10487 10485 10483 10481 10479 10478 10476 10473 10471 10469 10467 10464 10461 10459 10457 10454 10451 10448 10444 10441 10437 10433 10428 10424 10418 10413 10409 10404 10401 10398 10396 10394 10391 10387 10384 10382 10378 10375 10372 10369 10365 10361 10358 10354 10349 10345 10341 10336 10332 10327 10323
10496 10500 10500 10500 10500 10501 10501 10500 10500 10499 10497 10495 10493 10491 10491 10490 10490 10490 10490 10490 10490 10489 10489 10488 10487 10487 10485 10484 10484 10484 10484 10483 10482 10480 10478 10477 10474 10473 10471 10470 10468 10467 10465 10463 10460 10458 10455 10452 10450 10447 10444 10441 10438 10434 10430 10426 10421 10416 10411 10406 10402 10398 10394 10392 10389 10388 10385 10382 10379 10377 10373 10370 10367 10364 10360 10356 10353 10349 10345 10340 10336 10332 10328 10323 10319
10487 10491 10492 10492 10492 10492 10491 10492 10492 10491 10489 10486 10484 10484 10483 10482 10481 10481 10481 10481 10481 10481 10479 10478 10477 10478 10478 10478 10477 10477 10476 10475 10473 10472 10470 10469 10467 10465 10464 10462 10461 10460 10458 10456 10453 10450 10448 10445 10443 10440 10437 10434 10430 10427 10422 10418 10413 10409 10404 10400 10395 10392 10388 10386 10383 10382 10379 10377 10374 10371 10368 10365 10362 10359 10356 10351 10348 10344 10340 10336 10332 10328 10324 10320 10315
10480 10483 10484 10483 10483 10482 10481 10481 10481 10481 10479 10476 10474 10473 10472 10471 10471 10472 10472 10472 10472 10471 10470 10469 10468 10469 10470 10470 10470 10469 10468 10467 10465 10463 10462 10460 10459 10457 10456 10454 10453 10452 10450 10448 10445 10442 10439 10437 10434 10432 10429 10426 10422 10418 10414 10410 10406 10401 10397 10393 10389 10386 10383 10380 10378 10376 10374 10371 10369 10366 10363 10360 10357 10354 10350 10347 10343 10339 10335 10331 10327 10324 10320 10316 10312
10471 10473 10474 10474 10473 10472 10472 10472 10471 10471 10469 10466 10463 10461 10461 10461 10462 10463 10463 10463 10462 10461 10461 10460 10460 10461 10462 10462 10461 10461 10459 10457 10456 10456 10455 10453 10451 10450 10448 10447 10446 10444 10442 10439 10437 10434 10431 10428 10426 10423 10421 10417 10414 10410 10406 10402 10398 10394 10390 10386 10383 10379 10377 10375 10373 10371 10369 10366 10363 10360 10358 10355 10352 10349 10345 10341 10338 10334 10330 10326 10323 10319 10315 10312 10307
10459 10462 10464 10464 10464 10465 10465 10463 10462 10460 10458 10456 10453 10452 10452 10453 10454 10454 10454 10454 10453 10453 10452 10452 10452 10453 10453 10453 10452 10451 10450 10449 10448 10447 10447 10446 10444 10442 10441 10439 10438 10436 10433 10431 10428 10426 10424 10421 10418 10415 10412 10409 10405 10402 10398 10394 10390 10387 10383 10379 10376 10373 10371 10369 10368 10365 10363 10360 10357 10354 10352 10349 10346 10343 10339 10336 10333 10329 10325 10322 10318 10314 10311 10307 10303
10447 10451 10453 10455 10455 10455 10454 10453 10452 10451 10450 10448 10446 10445 10445 10445 10446 10446 10446 10446 10445 10444 10444 10444 10444 10445 10444 10443 10442 10441 10441 10440 10440 10439 10438 10437 10436 10434 10432 10431 10429 10427 10424 10421 10419 10417 10415 10412 10409 10407 10404 10401 10398 10394 10391 10387 10384 10381 10377 10373 10370 10367 10365 10363 10362 10360 10357 10354 10351 10348 10345 10343 10340 10337 10334 10330 10327 10324 10320 10317 10313 10310 10306 10303 10299
10436 10440 10443 10445 10445 10445 10444 10443 10442 10442 10441 10440 10439 10438 10438 10438 10439 10439 10439 10438 10436 10436 10436 10436 10436 10435 10434 10433 10433 10432 10432 10431 10430 10429 10428 10427 10426 10425 10423 10422 10420 10418 10414 10411 10410 10408 10406 10404 10401 10399 10396 10393 10391 10387 10384 10381 10378 10374 10371 10368 10364 10361 10358 10357 10355 10353 10351 10347 10344 10342 10339 10336 10333 10330 10327 10324 10321 10318 10315 10311 10308 10305 10301 10298 10294
10428 10431 10433 10435 10435 10435 10434 10434 10433 10433 10432 10432 10431 10431 10431 10431 10432 10432 10431 10429 10428 10426 10426 10427 10427 10426 10425 10424 10424 10424 10423 10421 10420 10419 10417 10416 10415 10414 10413 10413 10411 10409 10405 10402 10400 10398 10396 10394 10392 10390 10387 10385 10383 10380 10377 10374 10370 10367 10364 10361 10357 10354 10352 10350 10348 10346 10343 10340 10337 10334 10331 10328 10325 10323 10320 10318 10315 10312 10309 10305 10302 10299 10296 10292 10289
10419 10421 10423 10424 10425 10425 10425 10425 10425 10424 10424 10423 10423 10423 10423 10423 10423 10423 10422 10420 10418 10417 10417 10417 10417 10417 10416 10415 10415 10414 10413 10412 10410 10409 10407 10406 10405 10404 10403 10402 10401 10399 10396 10393 10391 10389 10387 10385 10383 10380 10378 10375 10373 10370 10368 10364 10361 10358 10354 10351 10349 10347 10345 10343 10340 10338 10335 10333 10330 10327 10324 10321 10318 10316 10313 10311 10308 10306 10303 10299 10296 10293 10290 10287 10283
10411 10412 10413 10414 10415 10416 10416 10416 10416 10416 10415 10414 10414 10415 10415 10415 10414 10414 10412 10411 10410 10408 10408 10408 10408 10408 10407 10406 10406 10405 10405 10403 10401 10399 10397 10395 10395 10394 10393 10392 10392 10390 10387 10384 10381 10378 10376 10374 10371 10369 10366 10364 10361 10358 10355 10352 10349 10347 10344 10342 10339 10337 10336 10334 10332 10329 10327 10325 10322 10319 10316 10313 10311 10308 10306 10304 10302 10299 10296 10293 10290 10287 10284 10281 10278
10402 10403 10404 10405 10406 10406 10407 10407 10407 10407 10406 10406 10406 10405 10406 10406 10406 10405 10403 10402 10401 10400 10399 10399 10399 10399 10398 10397 10397 10396 10395 10394 10392 10390 10387 10385 10384 10384 10383 10382 10382 10381 10378 10375 10372 10368 10365 10362 10359 10357 10354 10351 10349 10346 10344 10341 10338 10337 10335 10332 10330 10328 10327 10325 10323 10321 10319 10317 10315 10312 10309 10306 10303 10301 10299 10297 10295 10292 10289 10286 10283 10280 10277 10274 10271
10392 10393 10394 10394 10395 10396 10396 10397 10397 10397 10397 10397 10397 10397 10397 10397 10396 10395 10393 10392 10392 10391 10390 10390 10389 10389 10388 10387 10386 10385 10385 10384 10383 10381 10379 10376 10375 10374 10372 10371 10371 10370 10368 10366 10363 10359 10355 10351 10348 10346 10344 10342 10339 10337 10334 10331 10329 10328 10326 10323 10321 10319 10317 10316 10314 10313 10312 10310 10307 10305 10301 10298 10295 10293 10291 10289 10287 10285 10282 10279 10276 10273 10270 10268 10265
10381 10382 10382 10383 10384 10384 10385 10385 10386 10386 10386 10387 10387 10388 10388 10387 10387 10385 10384 10382 10382 10381 10381 10381 10380 10379 10378 10377 10376 10375 10374 10373 10372 10372 10370 10369 10367 10365 10363 10361 10360 10358 10357 10355 10353 10350 10346 10342 10339 10337 10335 10333 10331 10328 10325 10322 10321 10319 10318 10315 10313 10310 10309 10308 10306 10305 10304 10302 10299 10297 10294 10291 10288 10286 10284 10282 10280 10277 10275 10272 10269 10266 10263 10261 10258
10369 10370 10371 10372 10373 10374 10374 10375 10375 10375 10375 10376 10377 10377 10378 10378 10377 10376 10374 10372 10372 10371 10371 10371 10370 10370 10368 10367 10366 10365 10364 10363 10362 10361 10360 10359 10358 10356 10354 10351 10349 10347 10346 10344 10343 10340 10337 10334 10332 10329 10327 10324 10322 10319 10316 10314 10312 10311 10309 10307 10304 10302 10300 10299 10298 10297 10295 10294 10291 10288 10285 10283 10280 10278 10276 10274 10272 10270 10267 10264 10261 10258 10256 10253 10251